Weather History for Hilton Head Island, SC

Change the Weather History Date:

Friday, February 22, 2013

  Actual Average Record
Temperature  
Mean Temperature 58 °F -  
Max Temperature 64 °F 66 °F 62 °F (2014)
Min Temperature 53 °F 45 °F 46 °F (2014)
Degree Days  
Heating Degree Days 6    
Growing Degree Days 8 (Base 50)    
Moisture  
Dew Point 56 °F    
Average Humidity 98    
Maximum Humidity 100    
Minimum Humidity 82    
Precipitation  
Precipitation 0.04 in - - ()
Sea Level Pressure  
Sea Level Pressure 30.11 in    
Wind  
Wind Speed 7 mph (NNE)    
Max Wind Speed 13 mph    
Max Gust Speed 21 mph    
Visibility 6 miles    
Events Rain    
Averages and records for this station are not official NWS values.
T = Trace of Precipitation, MM = Missing Value Source: NWS Daily Summary

Daily Weather History Graph

Daily Weather History Graph

Search for Another Location

Airport:

Trip Planner

Search our weather history database for the weather conditions in past years. The results will help you decide how hot, cold, wet, or windy it might be!

Date:

Astronomy

Feb. 22, 2013 Rise Set
Actual Time 6:57 AM EST 6:15 PM EST
Civil Twilight 6:33 AM EST 6:39 PM EST
Nautical Twilight 6:04 AM EST 7:08 PM EST
Astronomical Twilight 5:36 AM EST 7:36 PM EST
Moon 3:31 PM EST (2/22) 4:34 AM EST (2/22)
Length of Visible Light 12h 06m
Length of Day
11h 17m
Waxing Gibbous, 90% of the Moon is Illuminated
Feb 22
Waxing Gibbous
Feb 25
Full
Mar 4
Last Quarter
Mar 11
New
Mar 19
First Quarter

Hourly Weather History & Observations

Time (EST) Temp. Dew Point Humidity Pressure Visibility Wind Dir Wind Speed Gust Speed Precip Events Conditions
12:15 AM 55.4 °F 55.4 °F 100% 30.14 in 10.0 mi NE 5.8 mph - 0.00 in   Clear
12:35 AM 55.4 °F 55.4 °F 100% 30.14 in 10.0 mi NE 5.8 mph - 0.00 in   Clear
12:55 AM 55.4 °F 55.4 °F 100% 30.14 in 10.0 mi NE 10.4 mph - 0.00 in   Clear
1:15 AM 57.2 °F 57.2 °F 100% 30.14 in 10.0 mi NE 6.9 mph - 0.00 in   Partly Cloudy
1:35 AM 57.2 °F 57.2 °F 100% 30.15 in 10.0 mi NE 9.2 mph - 0.00 in   Mostly Cloudy
1:55 AM 57.2 °F 57.2 °F 100% 30.14 in 10.0 mi NE 9.2 mph 16.1 mph 0.00 in   Mostly Cloudy
2:15 AM 57.2 °F 57.2 °F 100% 30.14 in 10.0 mi NE 9.2 mph - 0.00 in   Mostly Cloudy
2:35 AM 57.2 °F 57.2 °F 100% 30.13 in 10.0 mi NE 9.2 mph 16.1 mph 0.00 in   Overcast
2:55 AM 57.2 °F 57.2 °F 100% 30.13 in 10.0 mi NE 10.4 mph 17.3 mph 0.00 in   Overcast
3:15 AM 57.2 °F 57.2 °F 100% 30.12 in 10.0 mi NE 9.2 mph 16.1 mph 0.00 in   Mostly Cloudy
3:35 AM 57.2 °F 57.2 °F 100% 30.13 in 10.0 mi NE 10.4 mph 17.3 mph 0.00 in   Overcast
3:55 AM 57.2 °F 57.2 °F 100% 30.12 in 10.0 mi NNE 10.4 mph - 0.00 in   Overcast
4:15 AM 57.2 °F 57.2 °F 100% 30.11 in 10.0 mi NE 11.5 mph - 0.00 in   Overcast
4:35 AM 57.2 °F 57.2 °F 100% 30.12 in 10.0 mi NE 10.4 mph - 0.00 in   Overcast
4:55 AM 57.2 °F 57.2 °F 100% 30.12 in 10.0 mi NE 9.2 mph 17.3 mph 0.00 in   Overcast
5:15 AM 57.2 °F 57.2 °F 100% 30.12 in 10.0 mi ENE 8.1 mph 19.6 mph 0.00 in   Light Drizzle
5:35 AM 57.2 °F 57.2 °F 100% 30.13 in 10.0 mi NNE 10.4 mph 17.3 mph 0.00 in   Overcast
6:50 AM 57.2 °F 51.8 °F 82% 30.14 in 10.0 mi NE 8.1 mph 17.3 mph N/A   Overcast
7:50 AM 55.4 °F 50.0 °F 82% 30.16 in 3.0 mi NE 12.7 mph 20.7 mph N/A Rain Rain
8:50 AM 53.6 °F 51.8 °F 94% 30.17 in 5.0 mi NE 9.2 mph 19.6 mph N/A Rain Overcast
9:50 AM 55.4 °F 51.8 °F 88% 30.15 in 5.0 mi NE 9.2 mph 19.6 mph N/A   Overcast
10:50 AM 55.4 °F 53.6 °F 94% 30.17 in 3.0 mi NNE 10.4 mph - N/A   Drizzle
11:22 AM 55.4 °F 53.6 °F 94% 30.17 in 1.5 mi North 10.4 mph - N/A Rain Rain
12:50 PM 57.2 °F 55.4 °F 94% 30.15 in 3.0 mi NNE 6.9 mph - N/A Rain Light Rain
2:15 PM 57.2 °F 57.2 °F 100% 30.08 in 5.0 mi East 9.2 mph - N/A Rain Rain
2:50 PM 59.0 °F 57.2 °F 94% 30.08 in 5.0 mi NE 6.9 mph - N/A Rain Light Rain
3:50 PM 64.4 °F 62.6 °F 94% 30.07 in 5.0 mi Calm Calm - N/A Rain Rain
4:50 PM 64.4 °F 62.6 °F 94% 30.06 in 2.0 mi Calm Calm - N/A   Overcast
5:50 PM 62.6 °F 62.6 °F 100% 30.06 in 3.0 mi Calm Calm - N/A   Overcast
6:50 PM 60.8 °F 60.8 °F 100% 30.06 in 3.0 mi Calm Calm - N/A   Overcast
7:50 PM 60.8 °F 59.0 °F 94% 30.06 in 1.0 mi Calm Calm - N/A   Overcast
8:15 PM 60.8 °F 60.8 °F 100% 30.08 in 1.2 mi NNW 8.1 mph - 0.00 in   Overcast
8:35 PM 57.2 °F 57.2 °F 100% 30.08 in 0.8 mi Calm Calm - 0.00 in   Overcast
8:55 PM 57.2 °F 57.2 °F 100% 30.09 in 0.8 mi Calm Calm - 0.00 in   Overcast
9:15 PM 57.2 °F 57.2 °F 100% 30.08 in 1.0 mi Calm Calm - 0.00 in Rain Light Rain
9:35 PM 57.2 °F 57.2 °F 100% 30.08 in 1.2 mi NNW 4.6 mph - 0.01 in Rain Light Rain
9:55 PM 55.4 °F 55.4 °F 100% 30.08 in 1.0 mi Calm Calm - 0.01 in Rain Light Rain
10:15 PM 55.4 °F 55.4 °F 100% 30.09 in 1.5 mi NNW 6.9 mph - 0.00 in Rain Light Rain
10:35 PM 53.6 °F 53.6 °F 100% 30.09 in 1.5 mi North 6.9 mph - 0.00 in Rain Light Rain
10:55 PM 53.6 °F 53.6 °F 100% 30.09 in 1.2 mi North 5.8 mph - 0.01 in Rain Light Rain
11:15 PM 53.6 °F 53.6 °F 100% 30.08 in 2.0 mi North 6.9 mph - 0.00 in Rain Light Rain
11:35 PM 53.6 °F 53.6 °F 100% 30.07 in 2.5 mi North 3.5 mph - 0.01 in Rain Light Rain
11:55 PM 53.6 °F 53.6 °F 100% 30.05 in 3.0 mi North 3.5 mph - 0.02 in   Light Drizzle